Location: Casilda
(33.0440°S, 61.1680°W)
Time: 00:44:22
(UTC-03:00)

ISS - Pass Details

Date: 15 November 2017
Orbit: 402 x 407 km, 51.6° (Epoch: 13 December)

Event Time Altitude Azimuth Distance (km) Brightness Sun altitude
Rises 20:10:24 0° 240° (WSW) 2,360 2.9 -5.7°
Reaches altitude 10° 20:12:45 10° 254° (WSW) 1,490 0.7 -6.2°
Maximum altitude 20:15:28 23° 309° (NW) 926 -1.7 -6.7°
Drops below altitude 10° 20:18:10 10° 3° (N) 1,473 -1.3 -7.2°
Enters shadow 20:20:00 - 16° (NNE) 2,131 -0.6 -7.5°
